Location: Thompson
(55.7500°N, 97.8670°W)
Time: 15:08:24
(UTC-05:00)

Daily predictions for brighter satellites

Satellite Brightness Start Highest point End
(mag) Time Altitude Azimuth Time Altitude Azimuth Time Altitude Azimuth
Cosmos 2056 Rocket 3.5 22:28:07 10° SSW 22:33:17 88° WNW 22:38:27 10° NNE
Cosmos 1371 Rocket 4.5 22:30:18 10° SW 22:35:36 70° WNW 22:40:53 10° NNE
Sich 1 Rocket 3.8 22:31:36 10° SSW 22:36:12 82° WNW 22:40:49 10° N
COS B Rocket 3.9 22:32:25 10° N 22:36:43 64° W 22:40:41 10° SSW
IGS 5A 4.2 22:33:16 10° SE 22:37:11 41° ENE 22:41:07 10° N
CZ-4 SHROUD 4.3 22:34:12 10° S 22:37:11 42° W 22:40:11 10° NNW
AVUM R/B 4.0 22:35:40 10° NNW 22:39:05 48° NE 22:42:31 10° ESE
Cosmos 1741 Rocket 4.1 22:33:56 10° NNW 22:39:13 85° WSW 22:44:27 10° SSE
Cosmos 1727 Rocket 4.3 22:35:20 10° N 22:41:26 55° ENE 22:47:29 10° SSE
DELTA 2 DEB (DPAF) 4.3 22:37:02 10° SSE 22:41:29 67° ENE 22:45:57 10° NNW
COSMOS 2487 3.7 22:41:54 10° NW 22:45:19 38° WSW 22:48:41 10° S
Okean 3 4.1 22:41:14 10° NNW 22:45:29 57° W 22:49:40 10° S
Cosmos 1782 Rocket 3.6 22:44:13 10° S 22:48:39 71° E 22:53:09 10° NNE
USA 229 DEB 3.9 22:41:43 10° NW 22:48:48 78° SW 22:55:57 10° SE
USA 229 3.9 22:41:49 10° NW 22:48:54 79° SW 22:56:03 10° SE
ARGOS 3.4 22:44:11 10° S 22:49:32 73° WSW 22:54:56 10° NNW
Cosmos 2341 Rocket 4.1 22:47:13 10° S 22:53:32 86° E 22:59:50 10° NNE
Coronas F rocket 4.4 22:51:48 10° WSW 22:53:37 16° WNW 22:55:27 10° NNW
Landsat 7 3.9 22:49:00 10° SSE 22:53:47 85° ENE 22:58:35 10° NNW
Cosmos 1238 Rocket 3.8 22:51:27 10° NNW 22:54:14 33° W 22:57:15 10° SSW
NOSS 2-2 (D) 3.8 22:51:14 10° SW 22:55:39 77° SE 23:01:11 10° NE
Cosmos 1975 Rocket 3.7 22:52:24 10° NNW 22:56:37 53° W 23:00:50 10° S
Timation 2 Rocket 4.4 22:52:29 10° NW 22:58:22 55° WSW 23:04:09 10° SSE
Cosmos 1833 Rocket 2.7 22:55:01 10° NW 23:00:42 89° WSW 23:06:17 10° SSE
Meteor 2-13 Rocket 4.5 22:55:02 10° S 23:01:10 76° E 23:07:21 10° NNE
ISS-0.623:05:23E23:05:23E22:59:03S
Cosmos 1825 2.5 22:59:22 10° SSW 23:03:11 70° WNW 23:07:02 10° N
Cosmos 2278 Rocket 2.3 22:59:47 10° SSW 23:05:20 58° ESE 23:10:55 10° NE
CARTOSAT-1 3.6 23:01:56 10° SSE 23:06:15 82° ENE 23:10:36 10° NNW
NOSS 3-1 (A) 4.2 22:59:54 10° NW 23:06:58 70° NNE 23:14:55 10° ESE
Intercosmos 25 2.8 23:03:38 10° S 23:07:00 75° E 23:10:13 10° NNE
Cosmos 1862 4.0 23:03:48 10° SSW 23:07:49 58° WNW 23:11:53 10° N
Cosmos 1844 3.8 23:03:15 10° SSW 23:09:02 81° ESE 23:14:54 10° NE
YAOGAN 6 4.4 23:06:04 10° SSW 23:09:05 26° W 23:12:07 10° NW
Cosmos 1536 Rocket 3.6 23:04:56 10° N 23:09:27 80° E 23:13:54 10° SSE
Terra 1.9 23:04:45 10° SSE 23:09:32 85° ENE 23:14:20 10° NNW
NOSS 2-2 (C) 3.9 23:05:55 10° SW 23:10:22 89° NW 23:16:00 10° NE
Cosmos 1408 3.2 23:07:23 10° SSW 23:11:00 57° WNW 23:14:37 10° N
Cosmos 1812 3.0 23:08:25 10° N 23:12:16 58° ENE 23:15:44 12° SSE
Spot 4 3.9 23:08:31 10° SSE 23:13:17 74° ENE 23:18:10 10° NNW
Cosmos 1844 Rocket 2.9 23:07:51 10° SW 23:13:32 79° NW 23:19:12 10° NNE
Cosmos 1242 Rocket 3.9 23:10:20 10° NNW 23:13:42 37° W 23:17:07 10° SSW
ASTEX 1 4.1 23:09:47 10° NNE 23:14:25 38° E 23:18:38 12° SSE
SL-8 Rocket 4.0 23:08:15 10° S 23:14:30 78° E 23:20:46 10° NNE
Cosmos 2082 Rocket 2.6 23:12:03 10° NW 23:17:41 61° WSW 23:23:06 11° SSE
Cosmos 1420 Rocket 4.0 23:14:47 10° SSW 23:19:57 63° ESE 23:25:08 10° NNE
H-2A R/B 2.3 23:15:34 10° S 23:20:58 73° WSW 23:26:17 10° NNW
Cosmos 1486 Rocket 4.3 23:15:50 10° NNW 23:21:11 63° ENE 23:26:01 12° SE
SL-8 R/B 4.4 23:19:46 10° SW 23:24:03 32° S 23:28:20 10° ESE
BREEZE-M DEB (TANK) 4.1 23:21:56 10° SW 23:25:28 46° SSE 23:36:14 10° E
Gbstr 26 Del rocket 3.7 23:22:51 10° W 23:27:47 43° SSW 23:31:24 13° SE
ATLAS 2AS CENTAUR R/B 3.7 23:20:01 10° WNW 23:28:05 58° NNE 23:36:00 10° E
CZ-4C R/B 4.1 23:25:17 10° S 23:29:05 48° W 23:33:09 10° NNW
NOSS 2-2 (E) 4.3 23:24:35 10° WSW 23:29:12 71° NNW 23:35:04 10° NE
Cosmos 2263 Rocket 4.5 23:25:17 10° W 23:30:10 29° NNW 23:35:04 10° NNE
Cosmos 2084 3.4 23:26:47 10° SSW 23:30:29 47° SE 23:34:13 10° ENE
Cosmos 2151 Rocket 3.6 23:30:19 10° S 23:34:51 78° E 23:39:25 10° NNE
Cosmos 1452 Rocket 4.0 23:31:15 10° SW 23:36:30 66° WNW 23:41:47 10° NNE
Cosmos 2297 3.9 23:32:33 10° S 23:38:07 55° ESE 23:43:43 10° NE
NOSS 3-1 (C) 4.0 23:31:15 10° NW 23:38:26 87° SW 23:46:10 11° SE
CZ-4B R/B 4.1 23:40:01 10° NNE 23:44:59 57° WNW 23:49:47 10° SW
Cosmos 864 Rocket 4.5 23:39:57 10° S 23:46:07 88° E 23:52:21 10° NNE
Cosmos 1400 Rocket 4.4 23:45:55 15° SE 23:48:13 22° E 23:51:28 10° NE
SAR-Lupe-2 4.0 23:45:35 14° S 23:48:30 56° WSW 23:52:03 10° NNW
USA 234 3.7 23:44:03 10° ENE 23:50:03 37° SE 23:56:01 10° SSW
Spot 2 4.3 23:45:51 10° NNE 23:50:19 55° ESE 23:53:44 15° S
CZ-4 R/B 4.3 23:46:08 10° NNE 23:50:49 62° WNW 23:55:25 10° SSW
Cosmos 2084 Rocket 3.6 23:47:51 10° NW 23:51:40 62° NNE 23:55:33 10° ESE
ALOS 2 3.7 23:49:23 13° SE 23:52:52 35° ENE 23:56:53 10° N
Cosmos 1025 Rocket 3.4 23:51:16 10° N 23:55:36 55° ENE 23:58:47 18° SSE
